Weather in Kozhinka

Russia / Tula Oblast     53°23′39″N   36°59′35″E
temp.,
°C
wind,
m/s
gust,
m/s
humid.,
%
clouds,
%
prec.,
mm/h
press.,
hPa
HPBL,
m
23 april, fri
fri2300:00+8s5128435 0.3 1017253
03:00+7s5128651 0.3 1017256
06:00+6s5138566 0.0 1017277
09:00+12s7136631 0.0 1016798
12:00+15s9114899 0.0 10142306
15:00+15ssw8125399 0.4 10132147
18:00+8nw3382100 0.8 1014395
21:00+6nnw3493100 6.4 1013261
24 april, sat
sat2400:00+5wnw4494100 5.8 1011617
03:00+4wnw5896100 10.9 1011720
06:00+4wnw2786100 0.2 1010696
09:00+6wnw567392 0.6 1010952
12:00+8w565679 0.4 10091655
15:00+8w7757100 1.6 10081535
18:00+6w7971100 1.1 10091078
21:00+3w6987100 1.1 1011570
25 april, sun
sun2500:00+2wnw71295100 0.7 1012834
03:00+1w6128538 0.8 1014557
06:000wsw512905 0.0 1015407
09:00+4wsw711705 0.0 10141042
12:00+7wsw81249100 0.0 10142308
15:00+8wsw9134689 0.3 10132487
18:00+6w586980 0.9 10131196
21:00+2wnw4699100 2.6 1013468
26 april, mon
mon2600:00+1sw499616 1.3 1015281
03:00−1wsw37915 1.3 1015188
06:00−1wsw37885 0.0 1016233
09:00+4wsw45685 0.0 1015760
12:00+6wsw345361 0.5 10131546
15:00+7w444896 1.8 10121693
18:00+7wsw235469 0.8 1011997
21:00+3wsw3677100 1.7 1011117
27 april, tue
tue2700:00+2wsw3687100 0.1 1011195
03:00+1w4892100 0.2 1011344
06:00+1w599679 2.8 1011441
09:00+3w577816 2.8 1012748
12:00+6w6859100 0.9 10121825
15:00+7w7954100 2.8 10121624
18:00+6w576517 1.6 1013974
21:00+2wsw38854 1.8 1015158